| time (UTC) | temp C | wind direction | speed KPH | gust KPH | rain 1hr cm | rain 24hr cm | rain mn cm | humidity % | barometer mb |
| 20260506051336 | -6 | 291 | 0.0 | 0.0 | 0.00 | 0.10 | 0.10 | 97 | 1017.7 |
| 20260506050833 | -6 | 291 | 0.0 | 0.0 | 0.00 | 0.10 | 0.10 | 97 | 1017.7 |
| 20260506050331 | -6 | 291 | 0.0 | 0.0 | 0.00 | 0.10 | 0.10 | 97 | 1017.8 |
| 20260506044821 | -6 | 291 | 0.0 | 0.0 | 0.00 | 0.10 | 0.10 | 97 | 1017.5 |
| 20260506044319 | -6 | 291 | 0.0 | 0.0 | 0.00 | 0.10 | 0.10 | 97 | 1017.5 |
| 20260506043816 | -6 | 291 | 0.0 | 0.0 | 0.00 | 0.10 | 0.10 | 97 | 1017.4 |
| 20260506043313 | -6 | 291 | 0.0 | 0.0 | 0.00 | 0.10 | 0.10 | 97 | 1017.5 |
| 20260506042812 | -6 | 291 | 0.0 | 0.0 | 0.00 | 0.10 | 0.10 | 97 | 1017.4 |
| 20260506042310 | -6 | 291 | 0.0 | 0.0 | 0.00 | 0.10 | 0.10 | 97 | 1017.4 |
| 20260506041809 | -6 | 291 | 0.0 | 0.0 | 0.00 | 0.10 | 0.10 | 97 | 1017.5 |
| 20260506041305 | -6 | 291 | 0.0 | 0.0 | 0.00 | 0.10 | 0.10 | 97 | 1017.5 |
| 20260506040802 | -6 | 291 | 0.0 | 0.0 | 0.00 | 0.10 | 0.10 | 97 | 1017.4 |
| 20260506040259 | -6 | 291 | 0.0 | 0.0 | 0.00 | 0.10 | 0.10 | 97 | 1017.5 |
| 20260506035756 | -6 | 291 | 0.0 | 0.0 | 0.00 | 0.10 | 0.10 | 97 | 1017.4 |
| 20260506035253 | -6 | 291 | 0.0 | 0.0 | 0.00 | 0.10 | 0.10 | 97 | 1017.4 |
| 20260506034750 | -6 | 291 | 0.0 | 0.0 | 0.00 | 0.10 | 0.10 | 97 | 1017.3 |
| 20260506034247 | -6 | 291 | 0.0 | 0.0 | 0.00 | 0.10 | 0.10 | 97 | 1017.1 |
| 20260506033744 | -6 | 291 | 0.0 | 0.0 | 0.00 | 0.10 | 0.10 | 97 | 1017.3 |
| 20260506033241 | -6 | 291 | 0.0 | 0.0 | 0.00 | 0.10 | 0.10 | 97 | 1017.1 |
| 20260506032738 | -6 | 291 | 0.0 | 0.0 | 0.00 | 0.10 | 0.10 | 97 | 1017.0 |
| 20260506032235 | -6 | 291 | 0.0 | 0.0 | 0.00 | 0.10 | 0.10 | 97 | 1017.0 |
| 20260506031732 | -6 | 291 | 0.0 | 0.0 | 0.00 | 0.10 | 0.10 | 97 | 1016.9 |
| 20260506031229 | -6 | 291 | 0.0 | 0.0 | 0.00 | 0.10 | 0.10 | 97 | 1016.8 |
| 20260506030727 | -6 | 291 | 0.0 | 0.0 | 0.00 | 0.10 | 0.10 | 97 | 1016.6 |
| 20260506030225 | -6 | 291 | 0.0 | 0.0 | 0.00 | 0.10 | 0.10 | 97 | 1016.8 |
| 20260506025721 | -6 | 291 | 0.0 | 0.0 | 0.00 | 0.10 | 0.10 | 97 | 1016.5 |
| 20260506025218 | -6 | 291 | 0.0 | 0.0 | 0.00 | 0.10 | 0.10 | 97 | 1016.5 |
| 20260506024715 | -6 | 291 | 0.0 | 0.0 | 0.00 | 0.10 | 0.10 | 97 | 1016.4 |
| 20260506024211 | -6 | 271 | 0.0 | 0.0 | 0.00 | 0.10 | 0.10 | 97 | 1016.4 |
| 20260506023707 | -6 | 271 | 0.0 | 0.0 | 0.00 | 0.10 | 0.10 | 97 | 1016.6 |
| 20260506023205 | -6 | 291 | 0.0 | 0.0 | 0.00 | 0.10 | 0.10 | 97 | 1016.1 |
| 20260506022702 | -6 | 271 | 0.0 | 0.0 | 0.00 | 0.10 | 0.10 | 97 | 1016.2 |
| 20260506022159 | -6 | 304 | 0.0 | 0.0 | 0.00 | 0.10 | 0.10 | 97 | 1016.1 |
| 20260506021652 | -6 | 274 | 0.0 | 0.0 | 0.00 | 0.10 | 0.10 | 97 | 1016.2 |
| 20260506021149 | -6 | 278 | 0.0 | 0.0 | 0.00 | 0.10 | 0.10 | 97 | 1016.1 |
| 20260506020645 | -6 | 278 | 0.0 | 0.0 | 0.00 | 0.10 | 0.10 | 97 | 1016.0 |
| 20260506020143 | -6 | 285 | 0.0 | 0.0 | 0.00 | 0.10 | 0.10 | 97 | 1016.0 |
| 20260506015641 | -5 | 283 | 0.0 | 0.0 | 0.00 | 0.10 | 0.10 | 98 | 1015.7 |
| 20260506015137 | -5 | 271 | 0.0 | 0.0 | 0.00 | 0.10 | 0.10 | 98 | 1015.8 |
| 20260506014635 | -5 | 297 | 0.0 | 0.0 | 0.00 | 0.10 | 0.10 | 98 | 1015.6 |
| 20260506014130 | -5 | 275 | 0.0 | 0.0 | 0.00 | 0.10 | 0.10 | 98 | 1015.8 |
| 20260506013628 | -5 | 262 | 0.0 | 0.0 | 0.00 | 0.10 | 0.10 | 98 | 1015.7 |
| 20260506013125 | -5 | 261 | 0.0 | 0.0 | 0.00 | 0.10 | 0.10 | 98 | 1015.7 |
| 20260506012621 | -5 | 310 | 0.0 | 0.0 | 0.00 | 0.10 | 0.10 | 98 | 1015.4 |
| 20260506012117 | -5 | 278 | 0.0 | 0.0 | 0.00 | 0.10 | 0.10 | 98 | 1015.6 |
| 20260506011610 | -5 | 313 | 0.0 | 0.0 | 0.00 | 0.10 | 0.10 | 98 | 1015.6 |
| 20260506011106 | -5 | 272 | 0.0 | 0.0 | 0.00 | 0.10 | 0.10 | 98 | 1015.7 |
| 20260506010605 | -5 | 284 | 0.0 | 0.0 | 0.00 | 0.10 | 0.10 | 98 | 1015.4 |
| 20260506005559 | -5 | 271 | 0.0 | 0.0 | 0.00 | 0.10 | 0.10 | 98 | 1015.8 |
| 20260506005055 | -5 | 277 | 0.0 | 0.0 | 0.00 | 0.10 | 0.10 | 98 | 1015.7 |
| 20260506004552 | -5 | 310 | 0.0 | 0.0 | 0.00 | 0.10 | 0.10 | 98 | 1015.8 |
| 20260506004048 | -5 | 271 | 0.0 | 0.0 | 0.00 | 0.10 | 0.10 | 98 | 1015.4 |
| 20260506003545 | -5 | 291 | 0.0 | 0.0 | 0.00 | 0.10 | 0.10 | 98 | 1015.6 |
| 20260506003041 | -5 | 272 | 0.0 | 0.0 | 0.00 | 0.10 | 0.10 | 98 | 1015.4 |
| 20260506002537 | -5 | 268 | 0.0 | 0.0 | 0.00 | 0.10 | 0.10 | 98 | 1015.7 |
| 20260506002033 | -5 | 306 | 4.8 | 4.8 | 0.00 | 0.10 | 0.10 | 98 | 1015.4 |
| 20260506001530 | -4 | 269 | 0.0 | 1.6 | 0.00 | 0.10 | 0.10 | 98 | 1015.4 |
| 20260506001027 | -4 | 293 | 3.2 | 9.7 | 0.00 | 0.10 | 0.10 | 98 | 1015.3 |
| 20260506000525 | -4 | 283 | 1.6 | 4.8 | 0.00 | 0.10 | 0.10 | 99 | 1015.4 |
| 20260506000022 | -4 | 279 | 0.0 | 4.8 | 0.00 | 0.10 | 0.10 | 99 | 1015.3 |
| 20260505235520 | -4 | 301 | 0.0 | 1.6 | 0.00 | 0.10 | 0.10 | 99 | 1015.4 |
| 20260505235016 | -4 | 290 | 3.2 | 4.8 | 0.00 | 0.10 | 0.10 | 99 | 1015.2 |
| 20260505234513 | -4 | 294 | 1.6 | 3.2 | 0.00 | 0.10 | 0.10 | 99 | 1015.4 |
| 20260505234010 | -4 | 299 | 1.6 | 1.6 | 0.00 | 0.10 | 0.10 | 99 | 1015.3 |
| 20260505233508 | -3 | 277 | 1.6 | 3.2 | 0.00 | 0.10 | 0.10 | 99 | 1015.2 |
| 20260505233005 | -3 | 279 | 1.6 | 4.8 | 0.00 | 0.10 | 0.10 | 99 | 1015.0 |
| 20260505232503 | -3 | 288 | 1.6 | 6.4 | 0.00 | 0.10 | 0.10 | 99 | 1015.2 |
| 20260505232000 | -3 | 275 | 1.6 | 3.2 | 0.00 | 0.10 | 0.10 | 99 | 1015.3 |
| 20260505231457 | -3 | 278 | 0.0 | 4.8 | 0.00 | 0.10 | 0.10 | 99 | 1015.3 |
| 20260505230955 | -3 | 282 | 1.6 | 4.8 | 0.00 | 0.10 | 0.10 | 99 | 1015.2 |
| 20260505230452 | -3 | 292 | 6.4 | 9.7 | 0.00 | 0.10 | 0.10 | 99 | 1014.8 |
| 20260505225948 | -3 | 15 | 3.2 | 4.8 | 0.00 | 0.10 | 0.10 | 99 | 1014.9 |
| 20260505225446 | -3 | 341 | 4.8 | 9.7 | 0.00 | 0.10 | 0.10 | 99 | 1014.9 |
| 20260505224942 | -3 | 278 | 6.4 | 6.4 | 0.00 | 0.10 | 0.10 | 99 | 1015.0 |
| 20260505224439 | -3 | 289 | 1.6 | 6.4 | 0.00 | 0.10 | 0.10 | 99 | 1014.4 |
| 20260505223936 | -3 | 30 | 4.8 | 4.8 | 0.00 | 0.10 | 0.10 | 99 | 1014.9 |
| 20260505223433 | -3 | 320 | 0.0 | 1.6 | 0.00 | 0.10 | 0.10 | 99 | 1014.9 |
| 20260505222929 | -3 | 272 | 0.0 | 1.6 | 0.00 | 0.10 | 0.10 | 99 | 1015.0 |
| 20260505222425 | -3 | 287 | 3.2 | 4.8 | 0.00 | 0.10 | 0.10 | 99 | 1015.2 |
| 20260505221921 | -3 | 285 | 3.2 | 4.8 | 0.00 | 0.10 | 0.10 | 99 | 1015.2 |
| 20260505221419 | -3 | 299 | 3.2 | 4.8 | 0.00 | 0.10 | 0.10 | 99 | 1014.6 |
| 20260505220916 | -3 | 187 | 3.2 | 9.7 | 0.00 | 0.10 | 0.10 | 99 | 1014.6 |
| 20260505220413 | -3 | 137 | 4.8 | 9.7 | 0.00 | 0.10 | 0.10 | 99 | 1014.5 |
| 20260505215910 | -2 | 325 | 4.8 | 9.7 | 0.00 | 0.10 | 0.10 | 99 | 1014.4 |
| 20260505215408 | -3 | 333 | 3.2 | 4.8 | 0.00 | 0.10 | 0.10 | 99 | 1014.8 |
| 20260505214906 | -2 | 308 | 3.2 | 4.8 | 0.00 | 0.10 | 0.10 | 99 | 1014.8 |
| 20260505214403 | -3 | 273 | 1.6 | 3.2 | 0.00 | 0.10 | 0.10 | 99 | 1014.6 |
| 20260505213900 | -2 | 64 | 1.6 | 4.8 | 0.00 | 0.10 | 0.10 | 99 | 1014.6 |
| 20260505213358 | -2 | 305 | 0.0 | 3.2 | 0.00 | 0.10 | 0.10 | 99 | 1014.6 |
| 20260505212854 | -2 | 336 | 6.4 | 6.4 | 0.00 | 0.10 | 0.10 | 99 | 1014.8 |
| 20260505212351 | -2 | 265 | 0.0 | 9.7 | 0.00 | 0.10 | 0.10 | 99 | 1014.9 |
| 20260505211847 | -2 | 326 | 0.0 | 3.2 | 0.00 | 0.10 | 0.10 | 99 | 1014.8 |
| 20260505211345 | -2 | 238 | 3.2 | 4.8 | 0.00 | 0.10 | 0.10 | 99 | 1014.6 |
| 20260505210841 | -2 | 318 | 3.2 | 6.4 | 0.00 | 0.10 | 0.10 | 99 | 1014.9 |
| 20260505210338 | -2 | 325 | 6.4 | 9.7 | 0.00 | 0.10 | 0.10 | 99 | 1015.2 |
| 20260505205835 | -3 | 270 | 1.6 | 6.4 | 0.00 | 0.10 | 0.10 | 99 | 1015.0 |
| 20260505205334 | -2 | 351 | 3.2 | 4.8 | 0.00 | 0.10 | 0.10 | 99 | 1015.0 |
| 20260505204830 | -2 | 266 | 1.6 | 3.2 | 0.00 | 0.10 | 0.10 | 99 | 1015.3 |
| 20260505204328 | -2 | 293 | 3.2 | 3.2 | 0.00 | 0.10 | 0.10 | 99 | 1015.4 |
| 20260505203825 | -2 | 346 | 3.2 | 6.4 | 0.00 | 0.10 | 0.10 | 99 | 1015.6 |
| 20260505203321 | -2 | 284 | 0.0 | 4.8 | 0.00 | 0.10 | 0.10 | 99 | 1015.6 |
| 20260505202818 | -2 | 304 | 3.2 | 4.8 | 0.00 | 0.10 | 0.10 | 99 | 1015.6 |
| 20260505202314 | -2 | 255 | 8.0 | 9.7 | 0.00 | 0.10 | 0.10 | 99 | 1015.7 |
| 20260505201811 | -2 | 59 | 6.4 | 11.3 | 0.00 | 0.10 | 0.10 | 99 | 1016.1 |
| 20260505201308 | -2 | 267 | 3.2 | 6.4 | 0.00 | 0.10 | 0.10 | 99 | 1015.8 |
| 20260505200807 | -2 | 47 | 6.4 | 11.3 | 0.00 | 0.10 | 0.10 | 99 | 1015.8 |
| 20260505200303 | -2 | 184 | 4.8 | 6.4 | 0.00 | 0.10 | 0.10 | 99 | 1015.7 |
| 20260505195758 | -3 | 226 | 1.6 | 11.3 | 0.00 | 0.10 | 0.10 | 99 | 1015.6 |
| 20260505195256 | -3 | 118 | 6.4 | 14.5 | 0.00 | 0.10 | 0.10 | 99 | 1015.8 |
| 20260505194753 | -2 | 122 | 3.2 | 6.4 | 0.00 | 0.10 | 0.10 | 99 | 1016.0 |
| 20260505194250 | -2 | 220 | 3.2 | 11.3 | 0.00 | 0.10 | 0.10 | 99 | 1016.0 |
| 20260505193745 | -2 | 261 | 0.0 | 12.9 | 0.00 | 0.10 | 0.10 | 99 | 1015.6 |
| 20260505193243 | -2 | 165 | 3.2 | 11.3 | 0.00 | 0.10 | 0.10 | 99 | 1015.6 |
| 20260505192741 | -2 | 266 | 3.2 | 4.8 | 0.00 | 0.10 | 0.10 | 99 | 1015.7 |
| 20260505192239 | -2 | 90 | 6.4 | 6.4 | 0.00 | 0.10 | 0.10 | 99 | 1016.0 |
| 20260505191737 | -2 | 323 | 1.6 | 4.8 | 0.00 | 0.10 | 0.10 | 99 | 1015.8 |
| 20260505191235 | -2 | 64 | 6.4 | 11.3 | 0.00 | 0.10 | 0.10 | 99 | 1016.0 |
| 20260505190731 | -3 | 101 | 4.8 | 11.3 | 0.00 | 0.10 | 0.10 | 99 | 1016.0 |
| 20260505190231 | -3 | 52 | 4.8 | 11.3 | 0.00 | 0.10 | 0.10 | 99 | 1016.1 |
| 20260505185728 | -2 | 266 | 1.6 | 6.4 | 0.00 | 0.10 | 0.10 | 99 | 1016.1 |
| 20260505185224 | -3 | 249 | 0.0 | 9.7 | 0.00 | 0.10 | 0.10 | 99 | 1016.2 |
| 20260505184720 | -2 | 124 | 3.2 | 6.4 | 0.00 | 0.10 | 0.10 | 99 | 1016.2 |
| 20260505184218 | -2 | 71 | 6.4 | 11.3 | 0.00 | 0.10 | 0.10 | 99 | 1016.2 |
| 20260505183714 | -2 | 147 | 1.6 | 6.4 | 0.00 | 0.10 | 0.10 | 99 | 1016.1 |
| 20260505183212 | -2 | 287 | 4.8 | 11.3 | 0.00 | 0.10 | 0.10 | 99 | 1016.5 |
| 20260505182708 | -2 | 353 | 1.6 | 6.4 | 0.00 | 0.10 | 0.10 | 99 | 1016.6 |
| 20260505182205 | -2 | 19 | 4.8 | 9.7 | 0.00 | 0.10 | 0.10 | 99 | 1016.4 |
| 20260505181701 | -2 | 137 | 4.8 | 9.7 | 0.00 | 0.10 | 0.10 | 99 | 1016.5 |
| 20260505181159 | -3 | 232 | 3.2 | 11.3 | 0.00 | 0.10 | 0.10 | 99 | 1016.4 |
| 20260505180655 | -2 | 238 | 3.2 | 6.4 | 0.00 | 0.10 | 0.10 | 99 | 1016.4 |
| 20260505180153 | -2 | 39 | 3.2 | 6.4 | 0.00 | 0.10 | 0.10 | 99 | 1016.6 |
| 20260505175648 | -2 | 260 | 0.0 | 4.8 | 0.00 | 0.10 | 0.10 | 99 | 1016.8 |
| 20260505175145 | -2 | 334 | 6.4 | 9.7 | 0.00 | 0.10 | 0.10 | 99 | 1016.6 |
| 20260505174642 | -2 | 20 | 3.2 | 6.4 | 0.00 | 0.10 | 0.10 | 99 | 1016.8 |
| 20260505174137 | -2 | 122 | 8.0 | 12.9 | 0.00 | 0.10 | 0.10 | 99 | 1016.8 |
| 20260505173635 | -2 | 218 | 4.8 | 9.7 | 0.00 | 0.10 | 0.10 | 99 | 1016.6 |
| 20260505173131 | -2 | 327 | 3.2 | 6.4 | 0.00 | 0.10 | 0.10 | 99 | 1016.9 |
| 20260505172629 | -3 | 68 | 1.6 | 6.4 | 0.00 | 0.10 | 0.10 | 99 | 1017.0 |
| 20260505172126 | -3 | 8 | 8.0 | 12.9 | 0.00 | 0.10 | 0.10 | 99 | 1016.8 |
| 20260505171620 | -3 | 297 | 1.6 | 4.8 | 0.00 | 0.10 | 0.10 | 99 | 1016.8 |
| 20260505171118 | -2 | 236 | 1.6 | 4.8 | 0.00 | 0.10 | 0.10 | 99 | 1016.9 |
| 20260505170615 | -3 | 283 | 0.0 | 9.7 | 0.00 | 0.10 | 0.10 | 99 | 1016.9 |
| 20260505170111 | -2 | 102 | 6.4 | 11.3 | 0.00 | 0.10 | 0.10 | 99 | 1017.1 |
| 20260505165606 | -3 | 2 | 3.2 | 4.8 | 0.00 | 0.10 | 0.10 | 99 | 1016.9 |
| 20260505165102 | -3 | 314 | 6.4 | 11.3 | 0.00 | 0.10 | 0.10 | 99 | 1017.1 |
| 20260505164558 | -2 | 347 | 4.8 | 6.4 | 0.00 | 0.10 | 0.10 | 99 | 1017.0 |
| 20260505164056 | -3 | 299 | 1.6 | 6.4 | 0.00 | 0.10 | 0.10 | 99 | 1017.3 |
| 20260505163554 | -3 | 127 | 4.8 | 4.8 | 0.13 | 0.10 | 0.10 | 99 | 1017.1 |
| 20260505163051 | -3 | 251 | 1.6 | 3.2 | 0.13 | 0.10 | 0.10 | 99 | 1017.3 |
| 20260505162544 | -3 | 307 | 4.8 | 4.8 | 0.18 | 0.08 | 0.08 | 99 | 1017.3 |
| 20260505162041 | -3 | 296 | 3.2 | 6.4 | 0.18 | 0.08 | 0.08 | 99 | 1017.5 |
| 20260505161538 | -3 | 268 | 0.0 | 1.6 | 0.30 | 0.05 | 0.05 | 99 | 1017.4 |
| 20260505161035 | -3 | 290 | 1.6 | 4.8 | 0.30 | 0.05 | 0.05 | 99 | 1017.5 |
| 20260505160533 | -2 | 325 | 1.6 | 4.8 | 0.00 | 0.00 | 0.00 | 99 | 1017.3 |
| 20260505153003 | -3 | 294 | 0.0 | 4.8 | 0.00 | 0.00 | 0.00 | 99 | 1017.4 |
| 20260505152501 | -2 | 94 | 3.2 | 4.8 | 0.00 | 0.00 | 0.00 | 99 | 1017.4 |
| 20260505151955 | -2 | 215 | 1.6 | 1.6 | 0.00 | 0.00 | 0.00 | 99 | 1017.3 |
| 20260505151445 | -2 | 305 | 3.2 | 4.8 | 0.00 | 0.00 | 0.00 | 99 | 1017.4 |
| 20260505150942 | -2 | 335 | 3.2 | 6.4 | 0.00 | 0.00 | 0.00 | 99 | 1017.1 |
| 20260505150434 | -3 | 283 | 0.0 | 3.2 | 0.00 | 0.00 | 0.00 | 99 | 1017.7 |
| 20260505140403 | -3 | 279 | 0.0 | 4.8 | 0.00 | 0.00 | 0.00 | 99 | 1017.8 |
| 20260505124811 | -3 | 296 | 3.2 | 4.8 | 0.00 | 0.00 | 0.00 | 99 | 1017.3 |
| 20260505124308 | -2 | 276 | 1.6 | 3.2 | 0.00 | 0.00 | 0.00 | 99 | 1017.0 |
| 20260505123804 | -2 | 267 | 0.0 | 3.2 | 0.00 | 0.00 | 0.00 | 99 | 1017.1 |
| 20260505123300 | -2 | 294 | 4.8 | 6.4 | 0.00 | 0.00 | 0.00 | 99 | 1016.9 |
| 20260505122756 | -2 | 250 | 3.2 | 4.8 | 0.00 | 0.00 | 0.00 | 99 | 1017.1 |
| 20260505122254 | -2 | 21 | 3.2 | 4.8 | 0.00 | 0.00 | 0.00 | 99 | 1017.0 |
| 20260505121750 | -2 | 277 | 1.6 | 4.8 | 0.00 | 0.00 | 0.00 | 99 | 1017.4 |
| 20260505121247 | -2 | 297 | 1.6 | 3.2 | 0.00 | 0.00 | 0.00 | 99 | 1017.3 |
| 20260505120744 | -2 | 289 | 3.2 | 6.4 | 0.00 | 0.00 | 0.00 | 99 | 1017.1 |
| 20260505120240 | -2 | 287 | 4.8 | 9.7 | 0.00 | 0.00 | 0.00 | 99 | 1017.3 |
| 20260505115739 | -2 | 282 | 4.8 | 6.4 | 0.00 | 0.00 | 0.00 | 99 | 1017.1 |
| 20260505115236 | -2 | 58 | 4.8 | 9.7 | 0.00 | 0.00 | 0.00 | 99 | 1017.0 |
| 20260505114734 | -2 | 355 | 3.2 | 9.7 | 0.00 | 0.00 | 0.00 | 99 | 1016.9 |
| 20260505114229 | -2 | 335 | 4.8 | 11.3 | 0.00 | 0.00 | 0.00 | 99 | 1017.1 |
| 20260505113726 | -2 | 318 | 1.6 | 3.2 | 0.00 | 0.00 | 0.00 | 99 | 1016.8 |
| 20260505113223 | -1 | 345 | 3.2 | 6.4 | 0.00 | 0.00 | 0.00 | 99 | 1017.0 |
| 20260505112719 | -1 | 318 | 1.6 | 6.4 | 0.00 | 0.00 | 0.00 | 99 | 1017.1 |
| 20260505112217 | -1 | 275 | 3.2 | 9.7 | 0.00 | 0.00 | 0.00 | 99 | 1017.1 |
| 20260505111712 | -1 | 255 | 0.0 | 3.2 | 0.00 | 0.00 | 0.00 | 99 | 1016.8 |
| 20260505111208 | 0 | 3 | 9.7 | 11.3 | 0.00 | 0.00 | 0.00 | 99 | 1016.8 |
| 20260505110704 | 0 | 347 | 3.2 | 6.4 | 0.00 | 0.00 | 0.00 | 99 | 1016.8 |
| 20260505110202 | 0 | 1 | 4.8 | 4.8 | 0.00 | 0.00 | 0.00 | 99 | 1016.5 |
| 20260505102137 | 0 | 281 | 0.0 | 0.0 | 0.00 | 0.00 | 0.00 | 99 | 1016.6 |
| 20260505101636 | 0 | 311 | 0.0 | 0.0 | 0.00 | 0.00 | 0.00 | 99 | 1016.8 |
| 20260505101132 | 0 | 292 | 0.0 | 0.0 | 0.00 | 0.00 | 0.00 | 99 | 1016.6 |
| 20260505100628 | 0 | 288 | 0.0 | 0.0 | 0.00 | 0.00 | 0.00 | 99 | 1016.2 |
| 20260505100125 | 0 | 242 | 0.0 | 3.2 | 0.00 | 0.00 | 0.00 | 99 | 1016.4 |
| 20260505095621 | 0 | 266 | 0.0 | 1.6 | 0.00 | 0.00 | 0.00 | 99 | 1016.5 |
| 20260505095118 | 0 | 282 | 0.0 | 1.6 | 0.00 | 0.00 | 0.00 | 99 | 1016.5 |
| 20260505094614 | 0 | 283 | 1.6 | 4.8 | 0.00 | 0.00 | 0.00 | 99 | 1016.4 |
| 20260505094111 | 0 | 270 | 0.0 | 0.0 | 0.00 | 0.00 | 0.00 | 99 | 1016.8 |
| 20260505093607 | 0 | 270 | 0.0 | 0.0 | 0.00 | 0.00 | 0.00 | 99 | 1016.6 |
| 20260505093104 | 0 | 280 | 0.0 | 0.0 | 0.00 | 0.00 | 0.00 | 99 | 1016.6 |
| 20260505092601 | 0 | 297 | 3.2 | 3.2 | 0.00 | 0.00 | 0.00 | 99 | 1016.9 |
| 20260505092100 | 0 | 259 | 0.0 | 0.0 | 0.00 | 0.00 | 0.00 | 99 | 1016.6 |
| 20260505091556 | 0 | 267 | 0.0 | 3.2 | 0.00 | 0.00 | 0.00 | 99 | 1016.6 |
| 20260505091055 | 0 | 275 | 0.0 | 0.0 | 0.00 | 0.00 | 0.00 | 99 | 1016.8 |
| 20260505090552 | 0 | 271 | 0.0 | 0.0 | 0.00 | 0.00 | 0.00 | 99 | 1016.8 |
| 20260505090050 | 0 | 301 | 0.0 | 0.0 | 0.00 | 0.00 | 0.00 | 99 | 1016.6 |
| 20260505085547 | 0 | 292 | 0.0 | 0.0 | 0.00 | 0.00 | 0.00 | 99 | 1016.6 |
| 20260505085046 | 0 | 289 | 0.0 | 0.0 | 0.00 | 0.00 | 0.00 | 99 | 1016.8 |
| 20260505084543 | 0 | 272 | 0.0 | 0.0 | 0.00 | 0.00 | 0.00 | 99 | 1016.9 |
| 20260505084041 | 0 | 264 | 0.0 | 0.0 | 0.00 | 0.00 | 0.00 | 99 | 1017.1 |
| 20260505083538 | 0 | 269 | 0.0 | 0.0 | 0.00 | 0.00 | 0.00 | 99 | 1017.0 |
| 20260505083035 | 0 | 267 | 0.0 | 0.0 | 0.00 | 0.00 | 0.00 | 99 | 1017.0 |
| 20260505082530 | 0 | 262 | 0.0 | 0.0 | 0.00 | 0.00 | 0.00 | 99 | 1017.1 |
| 20260505082027 | 0 | 262 | 0.0 | 0.0 | 0.00 | 0.00 | 0.00 | 99 | 1017.1 |
| 20260505081524 | 0 | 266 | 0.0 | 0.0 | 0.00 | 0.00 | 0.00 | 99 | 1017.1 |
| 20260505081021 | 0 | 266 | 0.0 | 0.0 | 0.00 | 0.00 | 0.00 | 99 | 1017.1 |
| 20260505080517 | 0 | 265 | 0.0 | 0.0 | 0.00 | 0.00 | 0.00 | 99 | 1017.0 |
| 20260505080014 | 0 | 252 | 0.0 | 0.0 | 0.00 | 0.00 | 0.00 | 99 | 1017.3 |
| 20260505075510 | 0 | 253 | 0.0 | 0.0 | 0.00 | 0.00 | 0.00 | 99 | 1017.4 |
| 20260505075007 | 0 | 253 | 0.0 | 0.0 | 0.00 | 0.00 | 0.00 | 99 | 1017.3 |
| 20260505074504 | 0 | 249 | 0.0 | 0.0 | 0.00 | 0.00 | 0.00 | 99 | 1017.4 |
| 20260505074001 | 0 | 251 | 0.0 | 0.0 | 0.00 | 0.00 | 0.00 | 99 | 1017.5 |
| 20260505073459 | 0 | 259 | 0.0 | 0.0 | 0.00 | 0.00 | 0.00 | 99 | 1017.4 |
| 20260505072956 | 0 | 252 | 0.0 | 0.0 | 0.00 | 0.00 | 0.00 | 99 | 1017.4 |
| 20260505072452 | 0 | 248 | 0.0 | 0.0 | 0.00 | 0.00 | 0.00 | 99 | 1017.5 |
| 20260505071948 | 0 | 246 | 0.0 | 0.0 | 0.00 | 0.00 | 0.00 | 99 | 1017.5 |
| 20260505071444 | 0 | 239 | 0.0 | 0.0 | 0.00 | 0.00 | 0.00 | 99 | 1017.3 |
| 20260505070943 | 0 | 255 | 0.0 | 0.0 | 0.00 | 0.00 | 0.00 | 99 | 1017.7 |
| 20260505070439 | 0 | 254 | 0.0 | 0.0 | 0.00 | 0.00 | 0.00 | 99 | 1017.5 |
| 20260505065935 | 0 | 251 | 0.0 | 0.0 | 0.00 | 0.00 | 0.00 | 99 | 1017.7 |
| 20260505065431 | 0 | 258 | 1.6 | 4.8 | 0.00 | 0.00 | 0.00 | 99 | 1017.7 |
| 20260505064928 | 0 | 276 | 3.2 | 6.4 | 0.00 | 0.00 | 0.00 | 99 | 1017.9 |
| 20260505064425 | 0 | 287 | 3.2 | 3.2 | 0.00 | 0.00 | 0.00 | 99 | 1017.5 |
| 20260505063924 | 0 | 294 | 1.6 | 3.2 | 0.00 | 0.00 | 0.00 | 99 | 1017.9 |
| 20260505063420 | 0 | 269 | 0.0 | 1.6 | 0.00 | 0.00 | 0.00 | 99 | 1017.5 |
| 20260505062916 | 0 | 270 | 0.0 | 0.0 | 0.00 | 0.00 | 0.00 | 99 | 1017.5 |
| 20260505062414 | 1 | 301 | 1.6 | 3.2 | 0.00 | 0.00 | 0.00 | 99 | 1017.5 |
| 20260505061910 | 1 | 274 | 0.0 | 0.0 | 0.00 | 0.00 | 0.00 | 99 | 1017.4 |
| 20260505061409 | 1 | 236 | 0.0 | 0.0 | 0.00 | 0.00 | 0.00 | 99 | 1017.5 |
| 20260505060906 | 1 | 254 | 0.0 | 1.6 | 0.00 | 0.00 | 0.00 | 99 | 1017.5 |
| 20260505060402 | 1 | 271 | 0.0 | 0.0 | 0.00 | 0.00 | 0.00 | 99 | 1017.7 |
| 20260505055858 | 1 | 258 | 0.0 | 0.0 | 0.00 | 0.56 | 0.56 | 99 | 1017.4 |
| 20260505055355 | 1 | 277 | 0.0 | 0.0 | 0.00 | 0.56 | 0.56 | 99 | 1017.7 |
| 20260505054852 | 1 | 242 | 0.0 | 0.0 | 0.00 | 0.56 | 0.56 | 99 | 1017.8 |
| 20260505054349 | 1 | 254 | 0.0 | 0.0 | 0.00 | 0.56 | 0.56 | 99 | 1017.7 |
| 20260505053847 | 1 | 242 | 0.0 | 0.0 | 0.00 | 0.56 | 0.56 | 98 | 1017.7 |
| 20260505053344 | 1 | 242 | 0.0 | 0.0 | 0.00 | 0.56 | 0.56 | 98 | 1017.7 |